Weather History for KCSM - February, 2012

Change the Weather History Date:

Monday, February 6, 2012

  Actual Average Record
Temperature  
Mean Temperature 38 °F -  
Max Temperature 48 °F 49 °F 73 °F (2007)
Min Temperature 28 °F 29 °F 5 °F (2014)
Degree Days  
Heating Degree Days 27    
Moisture  
Dew Point 25 °F    
Average Humidity 58    
Maximum Humidity 78    
Minimum Humidity 36    
Precipitation  
Precipitation 0.00 in - - ()
Sea Level Pressure  
Sea Level Pressure 30.28 in    
Wind  
Wind Speed 5 mph (South)    
Max Wind Speed 12 mph    
Max Gust Speed -    
Visibility 10 miles    
Events      
Averages and records for this station are not official NWS values.
T = Trace of Precipitation, MM = Missing Value Source: NWS Daily Summary

Daily Weather History Graph

Daily Weather History Graph

Search for Another Location

Airport or City:

Trip Planner

Search our weather history database for the weather conditions in past years. The results will help you decide how hot, cold, wet, or windy it might be!

Date:

Astronomy

Feb. 06, 2012 Rise Set
Actual Time 7:32 AM CST 6:09 PM CST
Civil Twilight 7:06 AM CST 6:36 PM CST
Nautical Twilight 6:35 AM CST 7:06 PM CST
Astronomical Twilight 6:06 AM CST 7:36 PM CST
Moon 5:15 PM CST (2/6) 6:24 AM CST (2/6)
Length of Visible Light 11h 30m
Length of Day
10h 37m
Waxing Gibbous, 98% of the Moon is Illuminated
Feb 6
Waxing Gibbous
Feb 7
Full
Feb 14
Last Quarter
Feb 21
New
Feb 29
First Quarter

Hourly Weather History & Observations

Time (CST) Temp. Windchill Dew Point Humidity Pressure Visibility Wind Dir Wind Speed Gust Speed Precip Events Conditions
12:53 AM 30.0 °F - 23.0 °F 75% 30.38 in 10.0 mi Calm Calm - N/A   Clear
1:53 AM 30.0 °F 25.2 °F 23.0 °F 75% 30.38 in 10.0 mi NW 4.6 mph - N/A   Clear
2:53 AM 30.9 °F - 23.0 °F 72% 30.38 in 10.0 mi Calm Calm - N/A   Clear
3:53 AM 28.9 °F 25.2 °F 21.9 °F 75% 30.37 in 10.0 mi SSE 3.5 mph - N/A   Clear
4:53 AM 30.0 °F - 21.9 °F 72% 30.36 in 10.0 mi North - - N/A   Clear
5:53 AM 27.0 °F 20.5 °F 21.9 °F 81% 30.36 in 10.0 mi WSW 5.8 mph - N/A   Clear
6:53 AM 28.0 °F 20.8 °F 21.9 °F 78% 30.36 in 10.0 mi West 6.9 mph - N/A   Clear
7:53 AM 28.0 °F 21.7 °F 21.9 °F 78% 30.37 in 10.0 mi West 5.8 mph - N/A   Clear
8:53 AM 35.1 °F 31.0 °F 26.1 °F 70% 30.37 in 10.0 mi WSW 4.6 mph - N/A   Clear
9:53 AM 39.9 °F 35.8 °F 26.1 °F 58% 30.36 in 10.0 mi SW 5.8 mph - N/A   Clear
10:53 AM 43.0 °F 37.7 °F 25.0 °F 49% 30.36 in 10.0 mi SSW 9.2 mph - N/A   Clear
11:53 AM 45.0 °F 39.7 °F 24.1 °F 44% 30.33 in 10.0 mi South 10.4 mph - N/A   Clear
12:53 PM 46.0 °F 40.6 °F 23.0 °F 40% 30.28 in 10.0 mi South 11.5 mph - N/A   Clear
1:53 PM 48.0 °F - 23.0 °F 37% 30.24 in 10.0 mi SSE 10.4 mph - N/A   Clear
2:53 PM 48.9 °F - 23.0 °F 36% 30.22 in 10.0 mi South 9.2 mph - N/A   Clear
3:53 PM 48.9 °F - 23.0 °F 36% 30.21 in 10.0 mi South 11.5 mph - N/A   Clear
4:53 PM 48.9 °F - 23.0 °F 36% 30.19 in 10.0 mi SSW 9.2 mph - N/A   Clear
5:53 PM 45.0 °F 40.6 °F 24.1 °F 44% 30.19 in 10.0 mi SSE 8.1 mph - N/A   Clear
6:53 PM 39.0 °F 34.0 °F 26.1 °F 60% 30.19 in 10.0 mi SSE 6.9 mph - N/A   Clear
7:53 PM 39.0 °F 33.4 °F 27.0 °F 62% 30.20 in 10.0 mi SSE 8.1 mph - N/A   Clear
8:53 PM 37.9 °F 31.5 °F 28.9 °F 70% 30.20 in 10.0 mi South 9.2 mph - N/A   Clear
9:53 PM 39.0 °F 35.7 °F 28.9 °F 67% 30.20 in 10.0 mi SSE 4.6 mph - N/A   Mostly Cloudy
10:53 PM 41.0 °F 36.4 °F 30.0 °F 65% 30.20 in 10.0 mi South 6.9 mph - N/A   Overcast
11:53 PM 42.1 °F 37.1 °F 30.0 °F 62% 30.19 in 10.0 mi South 8.1 mph - N/A   Overcast